Weather History for Custer, SD

Change the Weather History Date:

Friday, January 11, 2013

  Actual Average Record
Temperature  
Mean Temperature 19 °F 24 °F  
Max Temperature 41 °F 35 °F 58 °F (1987)
Min Temperature -3 °F 13 °F -31 °F (1963)
Degree Days  
Heating Degree Days 46 41  
Month to date heating degree days 427 451  
Since 1 July heating degree days 3572 3921  
Cooling Degree Days 0 0  
Month to date cooling degree days 0 0  
Year to date cooling degree days 0 0  
Moisture  
Dew Point 11 °F    
Average Humidity 65    
Maximum Humidity 92    
Minimum Humidity 38    
Precipitation  
Precipitation 0.48 in 0.01 in 0.48 in (2013)
Month to date precipitation 0.49 0.10  
Year to date precipitation 0.49 0.10  
Sea Level Pressure  
Sea Level Pressure 29.45 in    
Wind  
Wind Speed 6 mph (SW)    
Max Wind Speed 17 mph    
Max Gust Speed 25 mph    
Visibility 3 miles    
Events Fog , Snow    
T = Trace of Precipitation, MM = Missing Value Source: NWS Daily Summary

Daily Weather History Graph

Daily Weather History Graph

Search for Another Location

Airport:

Trip Planner

Search our weather history database for the weather conditions in past years. The results will help you decide how hot, cold, wet, or windy it might be!

Date:

Astronomy

Jan. 11, 2013 Rise Set
Actual Time 7:26 AM MST 4:38 PM MST
Civil Twilight 6:54 AM MST 5:10 PM MST
Nautical Twilight 6:18 AM MST 5:46 PM MST
Astronomical Twilight 5:44 AM MST 6:21 PM MST
Moon 7:00 AM MST (1/11) 5:01 PM MST (1/11)
Length of Visible Light 10h 16m
Length of Day
9h 11m
Waning Crescent, 0% of the Moon is Illuminated
Jan 11
Waning Crescent
Jan 11
New
Jan 18
First Quarter
Jan 26
Full
Feb 3
Last Quarter

Hourly Weather History & Observations

Time (MST) Temp. Windchill Dew Point Humidity Pressure Visibility Wind Dir Wind Speed Gust Speed Precip Events Conditions
12:53 AM 39.0 °F 34.8 °F 17.1 °F 41% 29.40 in 10.0 mi SW 5.8 mph - N/A   Clear
1:53 AM 36.0 °F 29.6 °F 17.1 °F 46% 29.38 in 10.0 mi WNW 8.1 mph - N/A   Mostly Cloudy
2:53 AM 36.0 °F 33.3 °F 17.1 °F 46% 29.34 in 10.0 mi West 3.5 mph - N/A   Clear
3:53 AM 33.1 °F 28.7 °F 17.1 °F 52% 29.33 in 10.0 mi ESE 4.6 mph - N/A   Scattered Clouds
4:53 AM 30.9 °F - 19.0 °F 61% 29.32 in 10.0 mi Calm Calm - N/A   Overcast
5:53 AM 28.9 °F 21.9 °F 18.0 °F 64% 29.33 in 10.0 mi West 6.9 mph - N/A   Overcast
6:53 AM 28.0 °F 21.7 °F 19.0 °F 69% 29.36 in 10.0 mi South 5.8 mph - N/A   Overcast
7:20 AM 26.6 °F 22.6 °F 19.4 °F 74% 29.37 in 2.5 mi South 3.5 mph - 0.00 in Snow Light Snow
7:29 AM 24.8 °F - 21.2 °F 86% 29.37 in 1.2 mi Calm Calm - 0.00 in Snow Light Snow
7:53 AM 24.1 °F 18.2 °F 21.9 °F 91% 29.39 in 1.0 mi South 4.6 mph - 0.01 in Snow Light Snow
8:07 AM 24.8 °F 20.5 °F 21.2 °F 86% 29.37 in 0.5 mi South 3.5 mph - 0.01 in Fog , Snow Snow
8:15 AM 24.8 °F - 21.2 °F 86% 29.37 in 0.2 mi Calm Calm - 0.02 in Fog , Snow Snow
8:28 AM 24.8 °F 20.5 °F 21.2 °F 86% 29.37 in 0.5 mi Variable 3.5 mph - 0.03 in Fog , Snow Snow
8:53 AM 24.1 °F 19.7 °F 21.0 °F 88% 29.38 in 0.5 mi South 3.5 mph - 0.05 in Fog , Snow Snow
9:07 AM 24.8 °F - 21.2 °F 86% 29.36 in 0.8 mi Calm Calm - 0.01 in Snow Light Snow
9:48 AM 23.0 °F 15.8 °F 21.2 °F 93% 29.36 in 0.5 mi South 5.8 mph - 0.03 in Fog , Snow Snow
9:53 AM 23.0 °F 15.8 °F 19.9 °F 88% 29.39 in 0.2 mi SSE 5.8 mph - 0.03 in Fog , Snow Snow
10:04 AM 21.2 °F 13.6 °F 19.4 °F 93% 29.36 in 0.5 mi South 5.8 mph - 0.01 in Fog , Snow Snow
10:17 AM 21.2 °F 14.9 °F 17.6 °F 86% 29.36 in 1.0 mi SSW 4.6 mph - 0.01 in Snow Light Snow
10:25 AM 19.4 °F 12.8 °F 17.6 °F 93% 29.37 in 1.0 mi South 4.6 mph - 0.02 in Snow Light Snow
10:39 AM 19.4 °F 12.8 °F 15.8 °F 86% 29.37 in 0.5 mi South 4.6 mph - 0.02 in Fog , Snow Snow
10:46 AM 19.4 °F 10.4 °F 15.8 °F 86% 29.37 in 0.2 mi South 6.9 mph - 0.03 in Fog , Snow Snow
10:53 AM 19.0 °F 11.1 °F 15.1 °F 85% 29.41 in 0.5 mi South 5.8 mph - 0.04 in Fog , Snow Snow
11:13 AM 17.6 °F 10.7 °F 15.8 °F 93% 29.36 in 0.2 mi SSW 4.6 mph - 0.01 in Fog , Snow Snow
11:28 AM 19.4 °F 14.3 °F 15.8 °F 86% 29.36 in 0.5 mi SSW 3.5 mph - 0.03 in Fog , Snow Snow
11:45 AM 17.6 °F 10.7 °F 15.8 °F 93% 29.35 in 0.2 mi SW 4.6 mph - 0.04 in Fog , Snow Heavy Snow
11:53 AM 18.0 °F 11.1 °F 14.0 °F 84% 29.40 in 0.2 mi SW 4.6 mph - 0.06 in Fog , Snow Heavy Snow
12:15 PM 17.6 °F 12.3 °F 14.0 °F 86% 29.35 in 0.2 mi Variable 3.5 mph - 0.04 in Fog , Snow Heavy Snow
12:53 PM 15.1 °F 7.7 °F 12.0 °F 88% 29.42 in 0.2 mi South 4.6 mph - 0.13 in Fog , Snow Snow
1:35 PM 14.0 °F 5.1 °F 10.4 °F 86% 29.35 in 0.5 mi South 5.8 mph - 0.05 in Fog , Snow Snow
1:48 PM 12.2 °F 1.7 °F 10.4 °F 92% 29.36 in 0.2 mi South 6.9 mph - 0.06 in Fog , Snow Snow
1:53 PM 12.9 °F 3.8 °F 10.0 °F 88% 29.46 in 0.2 mi South 5.8 mph - 0.07 in Fog , Snow Snow
2:24 PM 12.2 °F 4.3 °F 8.6 °F 85% 29.39 in 0.5 mi South 4.6 mph - 0.03 in Fog , Snow Light Snow
2:53 PM 12.0 °F 4.1 °F 8.1 °F 84% 29.50 in 0.5 mi South 4.6 mph - 0.05 in Fog , Snow Light Snow
3:05 PM 12.2 °F 6.1 °F 8.6 °F 85% 29.40 in 0.8 mi Variable 3.5 mph - 0.00 in Snow Light Snow
3:30 PM 12.2 °F 6.1 °F 8.6 °F 85% 29.41 in 1.0 mi SW 3.5 mph - 0.01 in Snow Light Snow
3:50 PM 12.2 °F 6.1 °F 8.6 °F 85% 29.42 in 0.8 mi WNW 3.5 mph - 0.01 in Snow Light Snow
3:53 PM 12.0 °F 4.1 °F 8.1 °F 84% 29.54 in 0.8 mi WNW 4.6 mph - 0.01 in Snow Light Snow
4:05 PM 10.4 °F -0.4 °F 6.8 °F 85% 29.43 in 1.0 mi North 6.9 mph - 0.00 in Snow Light Snow
4:53 PM 7.0 °F -3.3 °F 3.0 °F 84% 29.60 in 1.2 mi NW 5.8 mph - 0.02 in Snow Light Snow
5:08 PM 6.8 °F -2.0 °F 1.4 °F 79% 29.46 in 2.0 mi NW 4.6 mph - 0.00 in Snow Light Snow
5:18 PM 6.8 °F -5.9 °F 1.4 °F 79% 29.46 in 8.0 mi West 8.1 mph - 0.01 in Snow Light Snow
5:26 PM 6.8 °F -5.9 °F -0.4 °F 72% 29.46 in 9.0 mi West 8.1 mph - 0.01 in   Overcast
5:53 PM 7.0 °F -6.6 °F -2.0 °F 67% 29.63 in 10.0 mi West 9.2 mph - 0.01 in   Overcast
6:53 PM 5.0 °F -10.8 °F -2.9 °F 70% 29.68 in 10.0 mi West 11.5 mph - N/A   Overcast
7:53 PM 3.0 °F -10.5 °F -6.0 °F 66% 29.73 in 10.0 mi WNW 8.1 mph - N/A   Overcast
8:53 PM 1.0 °F -18.0 °F -7.1 °F 69% 29.75 in 10.0 mi WNW 15.0 mph 19.6 mph N/A   Overcast
9:53 PM -0.0 °F -14.2 °F -9.0 °F 66% 29.77 in 5.0 mi WNW 8.1 mph - 0.00 in Snow Light Snow
10:53 PM -2.0 °F -16.6 °F -11.0 °F 66% 29.82 in 9.0 mi WNW 8.1 mph - 0.00 in   Overcast
11:40 PM -2.2 °F -19.9 °F -11.2 °F 66% 29.59 in 2.5 mi West 11.5 mph - 0.00 in Snow Light Snow
11:53 PM -2.9 °F -19.8 °F -9.9 °F 72% 29.84 in 2.5 mi West 10.4 mph 18.4 mph 0.00 in Snow Light Snow